Погода в Отаре

Погода в Отаре : погода сейчас, прогноз погоды и архив. Всё, что Вы хотите узнать о погоде в Отаре!

Поиск расширенной информации на нашем сайте:

Другие новости

Новости СМИ2

Главная страница сайта

Новости сайта

02.10.2013

Напоминаем, что на нашем новом сайте вы можете получить высокодетализированные прогнозы погоды по пунктам России, СНГ и мира (включающие важные для авиации метеовеличины, такие как направление и скорость ветра, видимость, явления погоды, количество и форма облачности, нижняя и верхняя граница облачности), а также ознакомиться с разнообразными материалами по авиационной метеорологии и подборкой полезных ссылок на эту тему.

Сайт Метеоцентр.Азия посвящён разработке технологий оптимизации авиаметеорологического обслуживания, включая проектирование и перспективное создание нескольких автоматизированных авиаметеорологических систем:
- система выпуска высокодетальных прогностических карт явлений погоды для нижнего воздушного пространства по России и ближнему зарубежью;
- система верификации прогнозов TAF (выпускаемых синоптиками официальных АМСГ РФ и ближнего зарубежья) и AUTOTAF (выпускаемых сайтом Метеоцентр.Азия) - выявление ошибок, онлайн-сопоставление с фактической погодой METAR, автоматическое внесение коррективов в прогнозы при резком отклонении фактической погоды от прогноза, подсчёт оправдываемости прогнозов по элементам и в целом;
- система обработки, анализа и отображения авиаметеорологической информации для применения провайдерами метеорологической информации.

Рекомендуем: Напольные газовые котлы купить в перми газовые напольные котлы в перми.

Погода в Отаре - сегодня

Время (UTC), дата Ветер
(°,м/с) 
Видим.   Явления Облачность Т
(°С)
Тd
(°С)
f(%) Тe
(°С)
Pmin
(гПа)
dP
(гПа)
Po
(мм)
O2
(г/м3)
Тmin Tmax R s Состояние
почвы
09 23.04.17 140 (ЮВ) 20000 м    3/3 1000 м 
[Cu med, cong]
+19.9 +6.4 41 +21  1020.5  -1.3  703  263           
12 23.04.17 110 (В) 20000 м    6/4 1000 м верхняя 
[Cu med, cong|Ci fib]
+19.6 +6.7 43 +21  1020.2  -0.4  702  263           
15 23.04.17 тихо ()   н/о    ясно верхняя 
[Ci fib]
+15.3 +9.9 70 +18  1021.7  0.3  703  266    +20.8       
18 23.04.17 тихо ()   н/о    ясно 
+11.6 +8.8 83 +12  1024.1  1.1  704  270    +20.8       
21 23.04.17 тихо ()   н/о    ясно 
+8.2 +6.7 90 +8  1024.4  -0.7  703  274           
00 24.04.17 тихо () {06}  20000 м    ясно 
+7.4 +5.8 90 +7  1024.4  -0.3  703  275           
03 24.04.17 тихо ()   20000 м    ясно 
+15.6 +9 65 +17  1022  0.2  703  266           
06 24.04.17 070 (В) 20000 м    3/3 1000 м 
[Cu hum]
+21.6 +6.7 38 +22  1018.7  -1.5  702  261  +7.2         
09 24.04.17 090 (В) 20000 м    5/5 1000 м 
[Cu med, cong]
+22.8 +8 39 +23  1017.8  -0.4  701  259           
12 24.04.17 090 (В) 20000 м    3/3 1000 м 
[Cu hum]
+21.7 +6.4 37 +22  1017.5  -0.6  701  261           
15 24.04.17 050 (СВ) н/о    ясно 
+15.1 +9.3 68 +17  1019.3  -0.1  701  266    +23.7       
18 24.04.17 тихо ()   н/о    ясно 
+12.9 +7.1 68 +13  1020  701  268    +23.7       
21 24.04.17 тихо ()   н/о    ясно 
+10.6 +7 78 +11  1019.7  -1  700  270           
00 25.04.17 тихо ()   20000 м    ясно 
+7.2 +5.9 91 +7  1021.4  0.6  701  274           
03 25.04.17 тихо ()   20000 м    ясно 
+14.9 +7.7 62 +15  1019.1  0.2  701  266           
06 25.04.17 090 (В) 20000 м    ясно 
+21.3 +5.8 36 +21  1015.2  -1.9  699  260  +7         
09 25.04.17 070 (В) 20000 м    ясно 
+24 +5.8 31 +24  1013.2  -1.1  699  258           
12 25.04.17 070 (В) 20000 м    ясно 
+24.1 +5.9 31 +24  1012.5  -0.7  698  257           
15 25.04.17 050 (СВ) н/о    ясно 
+15.4 +8.5 63 +16  1015.3  0.3  698  265    +25.1       
18 25.04.17 020 (С) н/о    ясно 
+14 +7.7 66 +15  1015.8  698  266    +25.1       
21 25.04.17 тихо ()   н/о    ясно 
+12.7 +6.8 67 +13  1015.9  -0.3  698  268           
00 26.04.17 тихо ()   20000 м    ясно 
+9 +6 81 +9  1016.1  -0.4  698  271           
03 26.04.17 тихо ()   20000 м    ясно 
+16 +9.3 64 +18  1014.5  0.2  698  264           
06 26.04.17 180 (Ю) 20000 м    ясно 
+24.2 +8.8 37 +25  1012  -0.1  698  257  +7.4         
09 26.04.17 110 (В) 20000 м    ясно 
+26 +10.7 38 +30  1011.2  -0.3  698  255           
Время (UTC), дата Ветер
(°,м/с) 
Видим.   Явления Облачность Т
(°С)
Тd
(°С)
f(%) Тe
(°С)
Pmin
(гПа)
dP
(гПа)
Po
(мм)
O2
(г/м3)
Тmin Tmax R s Состояние
почвы

Для получения пояснительной информации подведите курсор к названию столбца.

ПОГОДА в Отаре - архив

Всё, что Вы хотите узнать о погоде в Отаре - удобно и подробно!

Выберите нужную дату (начиная с 1 января 2015* года) и нажмите кнопку "Найти".
Будут отображены архивные сводки погоды по пункту Отар, начиная с указанной даты.


Отображать данные в формате CSV (для использования в таблицах Excel)


Внимание! Наш архив погоды предназначен исключительно для личного некоммерческого использования в познавательных целях. Если Вам необходимы официальные справки о состоянии погоды (для производственных, юридических, коммерческих и т.п. целей), обращайтесь в органы Росгидромета.

*Примечание: данная дата относится к архиву по метеостанциям СССР (Россия, СНГ, Балтия).
Архив по метеостанциям Зарубежной Европы и Азии (кроме Китая) хранится 10 дней, по другим регионам земного шара (Китай, Африка, Америка, Австралия, Океания) - 1 день.

Отар - район местоположения метеостанции


Название, широта, долгота, высота метеостанции:
Отар 43.5°ш. 75.2°д. 743 м над ур. моря [Казахстан]

Дополнительная информация

В oтличие oт бoльшинства пoгoдных сайтoв мы публикуем пoдрoбную метеoинфoрмацию в детальнoм прoфессиoнальнoм фoрмате.

Характеристики температуры и влажнoсти вoздуха измеряются на высoте 2 м в тени вдали oт зданий и деревьев.
Скoрoсть ветра измеряется на высoте 10 м (на урoвне рoста челoвека скoрoсть ветра ниже в 1.5-2 раза). Если метеoстанция нахoдится в гoрoде или в лесу, тo скoрoсть ветра занижена на 2-4 м/с пo сравнению с oткрытым местoм. Скoрoсть ветра над акватoриями крупных рек и oзёр, а также на вершинах хoлмoв на 2-5 м/с выше, чем в oбычных услoвиях.
Атмoсфернoе давление в разных тoчках местнoсти мoжет значительнo oтличаться oт давления на метеoстанции, в зависимoсти oт услoвий рельефа (при пoдъёме на 10 м давление пoнижается примернo на 1 мм рт.ст.).